Location: Valley Falls
(35.0169°N, 81.9753°W)
Time: 11:11:17
(UTC+00:00)

X-37B - Pass Details

Date: 08 December 2022
Orbit: 277 x 277 km, 45.0° (Epoch: 01 November)

Event Time Altitude Azimuth Distance (km) Brightness Sun altitude
Rises 23:29:03 0° 269° (W) 1,907 5.6 -14.6°
Reaches altitude 10° 23:31:15 10° 288° (WNW) 1,097 3.7 -15.0°
Maximum altitude 23:33:08 19° 339° (NNW) 735 2.0 -15.4°
Enters shadow 23:33:32 19° 353° (N) 754 1.9 -15.5°
